EN

Hourly Weather Kyzyl

Today, 5 August, Thursday

Time Temperature Precipitation Wind Pressure Humidity
00:00 +20°C° 0 mm 1 mps 694 mmHg 74%
01:00 +20°C° 0.1 mm 1 mps 694 mmHg 75%
02:00 +19°C° 0.1 mm 1 mps 694 mmHg 77%
03:00 +19°C° 0.1 mm 1 mps 694 mmHg 78%
04:00 +19°C° 0.3 mm 1 mps 694 mmHg 78%
05:00 +19°C° 0.3 mm 1 mps 694 mmHg 79%
06:00 +20°C° 0 mm 1 mps 694 mmHg 78%
07:00 +21°C° 0 mm 1 mps 694 mmHg 72%
08:00 +23°C° 0 mm 1 mps 694 mmHg 65%
09:00 +22°C° 0 mm 0 mps 694 mmHg 58%
10:00 +25°C° 0 mm 1 mps 694 mmHg 53%
11:00 +27°C° 0 mm 1 mps 694 mmHg 48%
12:00 +28°C° 0 mm 1 mps 693 mmHg 45%
13:00 +28°C° 0 mm 1 mps 693 mmHg 43%
14:00 +29°C° 0 mm 1 mps 693 mmHg 41%
15:00 +29°C° 0 mm 1 mps 692 mmHg 38%
16:00 +29°C° 0 mm 1 mps 692 mmHg 41%
17:00 +28°C° 0 mm 1 mps 691 mmHg 43%
18:00 +28°C° 0 mm 2 mps 691 mmHg 45%
19:00 +26°C° 1.6 mm 2 mps 691 mmHg 57%
20:00 +23°C° 1.6 mm 2 mps 691 mmHg 69%
21:00 +20°C° 1.6 mm 2 mps 691 mmHg 81%
22:00 +19°C° 0.4 mm 2 mps 691 mmHg 84%
23:00 +18°C° 0.4 mm 2 mps 691 mmHg 86%

Tomorrow, 6 August, Friday

Time Temperature Precipitation Wind Pressure Humidity
00:00 +17°C° 0.4 mm 2 mps 691 mmHg 89%
01:00 +17°C° 0.2 mm 2 mps 691 mmHg 88%
02:00 +17°C° 0.2 mm 2 mps 691 mmHg 87%
03:00 +17°C° 0.2 mm 2 mps 691 mmHg 86%
04:00 +17°C° 0.1 mm 2 mps 691 mmHg 83%
05:00 +17°C° 0.1 mm 2 mps 692 mmHg 80%
06:00 +17°C° 0.1 mm 3 mps 692 mmHg 77%
07:00 +17°C° 0.1 mm 3 mps 692 mmHg 77%
08:00 +17°C° 0.1 mm 3 mps 692 mmHg 77%
09:00 +17°C° 0.1 mm 3 mps 692 mmHg 77%
10:00 +17°C° 0.1 mm 3 mps 692 mmHg 74%
11:00 +18°C° 0.1 mm 3 mps 692 mmHg 71%
12:00 +18°C° 0.1 mm 3 mps 692 mmHg 68%
13:00 +19°C° 0 mm 4 mps 692 mmHg 64%
14:00 +20°C° 0 mm 5 mps 692 mmHg 61%
15:00 +20°C° 0 mm 5 mps 692 mmHg 57%
16:00 +20°C° 0 mm 5 mps 693 mmHg 61%
17:00 +19°C° 0 mm 5 mps 693 mmHg 64%
18:00 +17°C° 0 mm 5 mps 693 mmHg 67%
19:00 +18°C° 0 mm 4 mps 693 mmHg 69%
20:00 +17°C° 0 mm 3 mps 693 mmHg 71%
21:00 +17°C° 0 mm 3 mps 693 mmHg 73%
22:00 +17°C° 0 mm 3 mps 694 mmHg 74%
23:00 +16°C° 0 mm 3 mps 694 mmHg 74%

Day after tomorrow, 7 August, Saturday

Time Temperature Precipitation Wind Pressure Humidity
00:00 +16°C° 0 mm 2 mps 694 mmHg 75%
01:00 +16°C° 0 mm 2 mps 694 mmHg 76%
02:00 +16°C° 0 mm 2 mps 694 mmHg 77%
03:00 +16°C° 0 mm 2 mps 694 mmHg 78%
04:00 +16°C° 0.2 mm 2 mps 694 mmHg 79%
05:00 +16°C° 0.2 mm 2 mps 694 mmHg 81%
06:00 +16°C° 0.2 mm 2 mps 694 mmHg 82%
07:00 +15°C° 1.1 mm 2 mps 695 mmHg 85%
08:00 +15°C° 1.1 mm 2 mps 695 mmHg 87%
09:00 +15°C° 1.1 mm 2 mps 696 mmHg 90%
10:00 +15°C° 0.7 mm 2 mps 696 mmHg 88%
11:00 +16°C° 0.7 mm 2 mps 696 mmHg 87%
12:00 +16°C° 0.7 mm 2 mps 696 mmHg 85%
13:00 +17°C° 0.1 mm 3 mps 696 mmHg 81%
14:00 +17°C° 0.1 mm 3 mps 697 mmHg 76%
15:00 +18°C° 0.1 mm 3 mps 697 mmHg 72%
16:00 +18°C° 0 mm 2 mps 697 mmHg 72%
17:00 +18°C° 0 mm 2 mps 697 mmHg 73%
18:00 +18°C° 0 mm 2 mps 697 mmHg 73%
19:00 +17°C° 0 mm 2 mps 697 mmHg 77%
20:00 +16°C° 0 mm 1 mps 697 mmHg 82%
21:00 +15°C° 0 mm 1 mps 697 mmHg 86%
22:00 +15°C° 0 mm 1 mps 697 mmHg 86%
23:00 +14°C° 0 mm 1 mps 698 mmHg 87%

8 August, Sunday

Time Temperature Precipitation Wind Pressure Humidity
00:00 +14°C° 0 mm 1 mps 698 mmHg 87%
01:00 +14°C° 0 mm 1 mps 698 mmHg 87%
02:00 +13°C° 0 mm 0 mps 698 mmHg 87%
03:00 +13°C° 0 mm 0 mps 698 mmHg 87%
04:00 +14°C° 0 mm 0 mps 698 mmHg 85%
05:00 +14°C° 0 mm 0 mps 698 mmHg 84%
06:00 +15°C° 0 mm 0 mps 698 mmHg 82%
07:00 +16°C° 0 mm 0 mps 698 mmHg 77%
08:00 +19°C° 0 mm 1 mps 698 mmHg 73%
09:00 +20°C° 0 mm 1 mps 698 mmHg 68%
10:00 +22°C° 0.1 mm 1 mps 698 mmHg 63%
11:00 +21°C° 0.1 mm 0 mps 698 mmHg 58%
12:00 +22°C° 0.1 mm 0 mps 697 mmHg 53%
13:00 +22°C° 0.2 mm 0 mps 697 mmHg 50%
14:00 +25°C° 0.2 mm 1 mps 697 mmHg 48%
15:00 +25°C° 0.2 mm 1 mps 697 mmHg 45%
16:00 +25°C° 0.1 mm 1 mps 697 mmHg 48%
17:00 +24°C° 0.1 mm 2 mps 697 mmHg 51%
18:00 +24°C° 0.1 mm 2 mps 697 mmHg 54%
19:00 +21°C° 0.1 mm 2 mps 697 mmHg 61%
20:00 +19°C° 0.1 mm 2 mps 697 mmHg 68%
21:00 +17°C° 0.1 mm 2 mps 696 mmHg 75%
22:00 +17°C° 0 mm 2 mps 697 mmHg 76%
23:00 +16°C° 0 mm 2 mps 697 mmHg 77%

9 August, Monday

Time Temperature Precipitation Wind Pressure Humidity
00:00 +16°C° 0 mm 2 mps 697 mmHg 78%
01:00 +15°C° 0 mm 2 mps 697 mmHg 79%
02:00 +15°C° 0 mm 1 mps 697 mmHg 80%
03:00 +15°C° 0 mm 1 mps 697 mmHg 81%
04:00 +15°C° 0 mm 1 mps 697 mmHg 78%
05:00 +16°C° 0 mm 1 mps 697 mmHg 75%
06:00 +18°C° 0 mm 1 mps 697 mmHg 72%
07:00 +19°C° 0 mm 1 mps 697 mmHg 67%
08:00 +20°C° 0 mm 1 mps 697 mmHg 62%
09:00 +22°C° 0 mm 1 mps 697 mmHg 57%
10:00 +23°C° 0 mm 1 mps 697 mmHg 53%
11:00 +24°C° 0 mm 1 mps 697 mmHg 49%
12:00 +26°C° 0 mm 1 mps 696 mmHg 44%
13:00 +26°C° 0 mm 1 mps 696 mmHg 42%
14:00 +27°C° 0 mm 1 mps 696 mmHg 39%
15:00 +28°C° 0 mm 1 mps 696 mmHg 37%
16:00 +27°C° 0 mm 1 mps 696 mmHg 39%
17:00 +27°C° 0 mm 1 mps 696 mmHg 42%
18:00 +25°C° 0 mm 0 mps 696 mmHg 44%
19:00 +25°C° 0 mm 1 mps 696 mmHg 47%
20:00 +23°C° 0 mm 1 mps 695 mmHg 51%
21:00 +21°C° 0 mm 1 mps 695 mmHg 55%
22:00 +21°C° 0 mm 1 mps 695 mmHg 57%
23:00 +20°C° 0 mm 1 mps 695 mmHg 58%

10 August, Tuesday

Time Temperature Precipitation Wind Pressure Humidity
00:00 +18°C° 0 mm 2 mps 695 mmHg 60%
01:00 +19°C° 0 mm 1 mps 695 mmHg 62%
02:00 +18°C° 0 mm 1 mps 695 mmHg 64%
03:00 +18°C° 0 mm 1 mps 695 mmHg 65%
04:00 +18°C° 0 mm 1 mps 696 mmHg 63%
05:00 +19°C° 0 mm 1 mps 696 mmHg 61%
06:00 +20°C° 0 mm 1 mps 696 mmHg 59%
07:00 +21°C° 0 mm 1 mps 696 mmHg 56%
08:00 +22°C° 0 mm 1 mps 696 mmHg 52%
09:00 +23°C° 0 mm 1 mps 697 mmHg 49%
10:00 +25°C° 0 mm 1 mps 697 mmHg 46%
11:00 +26°C° 0 mm 1 mps 697 mmHg 44%
12:00 +25°C° 0 mm 0 mps 697 mmHg 41%
13:00 +27°C° 0 mm 1 mps 696 mmHg 39%
14:00 +28°C° 0 mm 1 mps 696 mmHg 38%
15:00 +28°C° 0 mm 1 mps 696 mmHg 36%
16:00 +28°C° 0 mm 1 mps 696 mmHg 40%
17:00 +27°C° 0 mm 1 mps 696 mmHg 43%
18:00 +27°C° 0 mm 1 mps 696 mmHg 46%
19:00 +25°C° 0 mm 1 mps 696 mmHg 49%
20:00 +23°C° 0 mm 1 mps 695 mmHg 52%
21:00 +20°C° 0 mm 2 mps 695 mmHg 54%
22:00 +20°C° 0 mm 2 mps 695 mmHg 55%
23:00 +19°C° 0 mm 2 mps 695 mmHg 56%
Show more